Regional Weather Roundup
Issued by NWS Grand Forks, ND

Home | Current Version | Previous Version | Graphics & Text | Print | Product List | Glossary On
Versions: 1 2 3 4 5 6 7 8 9 10 11 12 13 14 15 16 17 18 19 20 21 22 23 24 25 26 27 28 29 30 31 32 33 34 35 36 37 38 39 40 41 42 43 44 45 46 47 48 49 50
000
ASUS43 KFGF 170910
RWRFGF
PRAIRIE TO PINES  WEATHER ROUNDUP
NATIONAL WEATHER SERVICE EASTERN NORTH DAKOTA/GRAND FORKS ND
400 AM CDT THU APR 17 2014

 **SATELLITE DATA USED TO AUGMENT SKY COVER AT AUTOMATED STATIONS**
 *****  WEATHER ACROSS EASTERN NORTH DAKOTA  *****

CITY           SKY/WX    TMP DP  RH WIND       PRES   REMARKS
GRAND FORKS    CLEAR     23  19  85 N8        30.28S WCI  14
GRAND FRKS AFB CLEAR     22  17  79 N10       30.32S WCI  11
GRAND FRKS NWS   N/A     23 N/A N/A VRB5        N/A  WCI  17
DEVILS LAKE    CLEAR     19  10  68 CALM      30.31S
FARGO          CLEAR     24  17  74 N10       30.28R WCI  14
WAHPETON ARPT  SUNNY     21  19  93 NW8       30.26R WCI  12
$$

 ***** WEATHER ACROSS CENTRAL AND WESTERN NORTH DAKOTA  *****

CITY           SKY/WX    TMP DP  RH WIND       PRES   REMARKS
BISMARCK       CLOUDY    27  17  66 E9        30.29S WCI  18
MINOT          CLOUDY    23  13  65 E7        30.31S WCI  15
JAMESTOWN      CLEAR     19  17  92 NW7       30.28R WCI  10
MINOT AFB      MOCLDY    23  15  71 E7        30.31S WCI  14
GARRISON         N/A     24  14  65 E13       30.27F WCI  12
WILLISTON        N/A    N/A N/A N/A MISG      30.24F
DICKINSON      CLOUDY    26  21  81 E7        30.18S WCI  18
HETTINGER      CLOUDY    28  20  71 SE6       30.19F WCI  22
$$

 *****  OTHER AIRPORT OBSERVATIONS IN OUR AREA  *****

CITY           SKY/WX    TMP DP  RH WIND       PRES   REMARKS
WALHALLA       FAIR      19  16  86 NW7       30.37S WCI  10
GRAFTON AIRPOR FAIR      23  16  74 N12       30.34S WCI  12
VALLEY CITY AR NOT AVBL
CANDO          FAIR      16  12  86 N7        30.33F WCI   6
CAVALIER APRT  FAIR      23  14  68 N9        30.36S WCI  13
GWINNER        SUNNY     25  19  80 N9        30.27S WCI  15
ROLLA          FAIR      18  10  73 N6        30.33S WCI   9
 ***** THE ABOVE OBSERVATIONS ARE NON NWS ARE NOT QUALITY
       CONTROLLED AND MAY MIS-REPORT RAIN FOR SNOW...
$$

  *****  WEATHER ACROSS NORTHERN MINNESOTA  *****

CITY           SKY/WX    TMP DP  RH WIND       PRES   REMARKS
FLAG ISLAND    CLEAR     19   5  53 N5        30.31S WCI  13
WARROAD        CLEAR     21   9  58 N8        30.31S WCI  12
ROSEAU         CLEAR     19  12  73 N3        30.31S
HALLOCK        CLOUDY    23  12  63 N5        30.33S WCI  17
THF RVR FALLS  CLEAR     23  10  58 N7        30.30R WCI  15
BAUDETTE       CLEAR     21   6  52 NE5       30.28S WCI  15
WASKISH        CLEAR     21   9  58 NE5       30.26S WCI  15
CROOKSTON      CLEAR     23  18  80 NE5       30.30S WCI  17
$$
  *****  WEATHER ACROSS CENTRAL AND WEST MINNESOTA  *****

CITY           SKY/WX    TMP DP  RH WIND       PRES   REMARKS
FOSSTON        CLEAR     19  12  73 N6        30.26R WCI  11
BEMIDJI        CLEAR     21   9  61 N5        30.23R WCI  14
PARK RAPIDS    CLEAR     22  16  78 N8        30.19S WCI  12
ELBOW LAKE     FAIR      22  19  85 N8        30.21R WCI  13
WADENA         CLEAR     19  16  86 N8        30.18S WCI   9
DETROIT LAKES  CLEAR     27  19  74 N6        30.23S WCI  20
MOORHEAD       NOT AVBL
FERGUS FALLS   CLEAR     25  18  74 N6        30.21S WCI  18
MORRIS MN      CLEAR     21  18  86 N12       30.20R WCI   9
STAPLES        CLEAR     19  18  93 N9        30.17S WCI   9
$$
  *****  WEATHER ELSEWHERE ACROSS MINNESOTA  *****

CITY           SKY/WX    TMP DP  RH WIND       PRES   REMARKS
DULUTH         LGT SNOW  29  25  85 NE16      30.10S VSB 1   WCI  17
INTRNTL FALLS  CLEAR     22   8  55 N5        30.26S WCI  16
ELY            LGT SNOW  21  21 100 N6        30.18S WCI  14
CLOQUET        LGT SNOW  27  25  93 N6        30.10S WCI  20
WHEATON        CLEAR     25  21  86 N6        30.26R WCI  18
BRAINERD       CLOUDY    29  19  66 N12       30.15S WCI  19
HIBBING        CLOUDY    26  20  77 N10       30.16S WCI  16
ALEXANDRIA     CLEAR     22  17  81 N12       30.17R WCI  10
SAINT CLOUD    MOCLDY    27  21  78 N10       30.10R WCI  17
MINNEAPOLIS    CLOUDY    28  28 100 N16G26    30.03R WCI  16
$$

  *****  WEATHER ACROSS SOUTH DAKOTA  *****

CITY           SKY/WX    TMP DP  RH WIND       PRES   REMARKS
SIOUX FALLS    CLOUDY    27  22  81 N10       30.19R WCI  17
BROOKINGS      NOT AVBL
WATERTOWN      CLEAR     17  14  88 N10       30.19S WCI   5
HURON          CLEAR     17  14  88 N6        30.24S WCI   9
SISSETON         N/A     20  17  88 NW9       30.24R WCI   9
ABERDEEN       CLEAR     19  16  88 N8        30.27R WCI   9
MITCHELL       CLEAR     23  21  92 NW9       30.25R WCI  13
PIERRE         CLEAR     22  18  85 CALM      30.24R
MOBRIDGE       CLOUDY    26  15  63 E10       30.23S WCI  16
RAPID CITY     CLOUDY    28  25  88 S9        30.16F WCI  19
$$

  *****  SOME WEATHER IN NEARBY STATES *****

CITY           SKY/WX    TMP DP  RH WIND       PRES   REMARKS
GLASGOW MT     PTCLDY    24  19  81 E14       30.13F WCI  12
GREAT FALLS MT MOCLDY    35  28  75 S10       29.91F
CHEYENNE WY    MOCLDY    30  28  92 S13       30.06F WCI  20
SCOTTSBLUFF NE CLOUDY    34  29  82 E12       30.14F
OMAHA NE       CLOUDY    34  26  72 NW21      30.19R WCI  22
DES MOINES IA  CLOUDY    36  29  75 NW17G23   30.12R
DAVENPORT IA   MOCLDY    46  27  47 S17G28    30.02R
CHICAGO IL     CLOUDY    43  24  47 S15       30.13F
EAU CLAIRE WI  LGT RAIN  38  36  92 NE8       29.94R
LA CROSSE WI   CLOUDY    49  29  46 S13       29.87S
$$

  *****  SOME NATIONAL WEATHER *****

CITY           SKY/WX    TMP DP  RH WIND       PRES   REMARKS
LA GUARDIA NY  MOCLDY    37  21  52 NE17      30.63S
RALEIGH NC     PTCLDY    34  28  79 NE3       30.49R
ATLANTA GA     MOCLDY    43  32  65 E10       30.34R
NEW ORLEANS LA CLOUDY    56  49  77 NE5       30.11F
OKLAHOMA CITY  PTCLDY    48  36  63 S9        30.05R
ALBUQUERQUE NM MOCLDY    53  24  32 N7        30.02R
SALT LAKE CITY CLEAR     41  19  41 SE9       30.02S
LOS ANGELES CA MOCLDY    60  53  77 SE7       29.86F
BOISE ID       CLEAR     41  23  48 SE5       29.98F
SEATTLE WA     LGT RAIN  50  48  93 S10       29.91F
$$

*** WEATHER ACROSS MANITOBA...SASKATCHEWAN AND ONTARIO ***
                ***ONTARIO***

CITY           SKY/WX    TMP DP  RH WIND       PRES   REMARKS
GERALDTON      PTCLDY     9   3  78 CALM      30.39S
THUNDER BAY    LGT SNOW  27  27 100 NE16G22   30.30F WCI  14
SIOUX LOOKOUT  PTCLDY    16   1  53 NE3       30.33S
TORONTO        PTCLDY    32  21  64 E14       30.53S WCI  22
BIG TROUT LK   CLEAR     -2  -9  71 SW6       30.41R WCI -14
PICKLE LAKE    NOT AVBL
DRYDEN         MOCLDY    16   1  53 E7        30.31S WCI   6
KENORA         CLEAR     18   1  49 NE8       30.32S WCI   7
$$
                *** MANITOBA***

CITY           SKY/WX    TMP DP  RH WIND       PRES   REMARKS
BRANDON        CLEAR     16   9  73 NE6       30.39S WCI   7
DAUPHIN        CLEAR     16  12  86 W5        30.41F WCI   9
ISLAND LAKE    CLEAR      3   0  85 CALM      30.42R
PILOT MOUND      N/A     14   7  73 N5          N/A  WCI   6
THE PAS        PTCLDY     3  -2  78 SE2       30.40S
THOMPSON       CLEAR     -6 -15  65 W2        30.38S
WINNIPEG       NOT AVBL
LYNN LAKE      CLEAR      3  -6  66 SW8       30.32F WCI -10
CHURCHILL      PTCLDY    12   1  62 W16       30.15F WCI  -4
GILLAM         CLEAR      7   1  78 SW5       30.33S WCI  -2
$$
                ***SASKATCHEWAN***

CITY           SKY/WX    TMP DP  RH WIND       PRES   REMARKS
ESTEVAN        CLOUDY    21  14  73 E14       30.29F WCI   8
KINDERSLEY     FLURRIES  25  23  93 SE21G28   30.04F WCI  10
LLOYDMINSTER   CLOUDY    23  19  86 E14       30.07F WCI  11
PRINCE ALBERT  CLEAR     14   7  73 E6        30.29F WCI   5
REGINA         CLOUDY    23  16  74 SE16G23   30.25F WCI  10
YORKTON        CLEAR     18  10  73 SE7       30.33F WCI   8
N. BATTLEFORD  CLOUDY    23  21  93 E15       30.17F WCI  10
LA RONGE       CLEAR     10   0  61 S2        30.32S
SASKATOON      MOCLDY    21  16  79 SE10      30.22F WCI  10
SWIFT CURRENT  CLOUDY    25  19  80 SE22      30.05F WCI  10
$$
NOTE: THESE ARE AUTOMATED STATIONS WITH LIMITED QUALITY CONTROL
      "FAIR" INDICATES FEW OR NO CLOUDS BELOW 12,000 FEET WITH NO
      SIGNIFICANT WEATHER AND/OR OBSTRUCTIONS TO VISIBILITY.
      SKY/WX - SKY CONDITION AND SIGNIFICANT WEATHER.
      TMP - AIR TEMPERATURE.    DP   - DEWPOINT TEMPERATURE.
      RH  - RELATIVE HUMIDITY.  PRES - PRESSURE.
      HX  - HEAT INDEX.         WCI  - WIND CHILL INDEX.
$



USA.gov is the U.S. government's official web portal to all federal, state and local government web resources and services.